Time,TemperatureF,DewpointF,PressureIn,WindDirection,WindDirectionDegrees,WindSpeedMPH,WindSpeedGustMPH,Humidity,HourlyPrecipIn,Conditions,Clouds,dailyrainin,SoftwareType,DateUTC
2013-02-13 00:00:00,71.2,56.2,30.07,East,81,6.0,20.0,59,0.00,,---,0.00,VWS V14.01,2013-02-13 10:00:00,
2013-02-13 00:05:00,71.1,56.1,30.06,East,80,15.0,15.0,59,0.00,,---,0.00,VWS V14.01,2013-02-13 10:05:00,
2013-02-13 00:10:00,71.2,55.7,30.06,NE,50,4.0,15.0,58,0.00,,---,0.00,VWS V14.01,2013-02-13 10:10:00,
2013-02-13 00:15:00,71.3,56.2,30.07,NNE,15,5.0,15.0,59,0.00,,---,0.00,VWS V14.01,2013-02-13 10:15:00,
2013-02-13 00:20:00,71.4,55.9,30.07,ENE,71,9.0,15.0,58,0.00,,---,0.00,VWS V14.01,2013-02-13 10:20:00,
2013-02-13 00:25:00,71.1,55.6,30.07,East,88,9.0,15.0,58,0.00,,---,0.00,VWS V14.01,2013-02-13 10:25:00,
2013-02-13 00:30:00,70.7,55.2,30.07,NE,54,6.0,15.0,58,0.00,,---,0.00,VWS V14.01,2013-02-13 10:30:00,
2013-02-13 00:35:00,70.6,55.1,30.07,ENE,74,9.0,14.0,58,0.00,,---,0.00,VWS V14.01,2013-02-13 10:35:00,
2013-02-13 00:41:00,70.6,55.1,30.06,East,88,8.0,14.0,58,0.00,,---,0.00,VWS V14.01,2013-02-13 10:41:00,
2013-02-13 00:46:00,70.4,55.4,30.06,ESE,115,3.0,14.0,59,0.00,,---,0.00,VWS V14.01,2013-02-13 10:46:00,
2013-02-13 00:51:00,70.3,54.8,30.06,East,80,8.0,14.0,58,0.00,,---,0.00,VWS V14.01,2013-02-13 10:51:00,
2013-02-13 00:56:00,70.4,54.9,30.06,East,91,6.0,14.0,58,0.00,,---,0.00,VWS V14.01,2013-02-13 10:56:00,
2013-02-13 01:01:00,70.2,55.2,30.06,East,98,9.0,14.0,59,0.00,,---,0.00,VWS V14.01,2013-02-13 11:01:00,
2013-02-13 01:06:00,70.1,55.1,30.06,ESE,121,7.0,11.0,59,0.00,,---,0.00,VWS V14.01,2013-02-13 11:06:00,
2013-02-13 01:11:00,70.0,55.0,30.06,ENE,75,3.0,11.0,59,0.00,,---,0.00,VWS V14.01,2013-02-13 11:11:00,
2013-02-13 01:16:00,69.7,55.7,30.05,NE,36,3.0,11.0,61,0.00,,---,0.00,VWS V14.01,2013-02-13 11:16:00,
2013-02-13 01:21:00,69.8,55.3,30.05,East,84,9.0,11.0,60,0.00,,---,0.00,VWS V14.01,2013-02-13 11:21:00,
2013-02-13 01:26:00,69.7,55.2,30.05,ENE,76,3.0,11.0,60,0.00,,---,0.00,VWS V14.01,2013-02-13 11:26:00,
2013-02-13 01:31:00,69.7,55.2,30.05,ENE,69,11.0,15.0,60,0.00,,---,0.00,VWS V14.01,2013-02-13 11:31:00,
2013-02-13 01:36:00,69.7,55.2,30.05,East,92,9.0,15.0,60,0.00,,---,0.00,VWS V14.01,2013-02-13 11:36:00,
2013-02-13 01:41:00,69.8,55.3,30.05,ENE,59,5.0,19.0,60,0.00,,---,0.00,VWS V14.01,2013-02-13 11:41:00,
2013-02-13 01:46:00,69.5,55.5,30.05,ENE,78,2.0,19.0,61,0.00,,---,0.00,VWS V14.01,2013-02-13 11:46:00,
2013-02-13 01:51:00,69.2,55.6,30.05,ENE,69,4.0,19.0,62,0.00,,---,0.00,VWS V14.01,2013-02-13 11:51:00,
2013-02-13 01:56:00,69.3,55.3,30.05,NNE,30,10.0,19.0,61,0.00,,---,0.00,VWS V14.01,2013-02-13 11:56:00,
2013-02-13 02:01:00,69.6,55.1,30.04,ESE,107,12.0,19.0,60,0.00,,---,0.00,VWS V14.01,2013-02-13 12:01:00,
2013-02-13 02:06:00,69.8,55.3,30.04,East,96,7.0,14.0,60,0.00,,---,0.00,VWS V14.01,2013-02-13 12:06:00,
2013-02-13 02:11:00,69.6,55.1,30.04,ENE,67,1.0,14.0,60,0.00,,---,0.00,VWS V14.01,2013-02-13 12:11:00,
2013-02-13 02:16:00,69.3,54.8,30.04,East,82,8.0,14.0,60,0.00,,---,0.00,VWS V14.01,2013-02-13 12:16:00,
2013-02-13 02:21:00,69.2,54.7,30.04,ENE,74,3.0,14.0,60,0.00,,---,0.00,VWS V14.01,2013-02-13 12:21:00,
2013-02-13 02:26:00,69.1,54.7,30.03,ESE,108,3.0,15.0,60,0.00,,---,0.00,VWS V14.01,2013-02-13 12:26:00,
2013-02-13 02:31:00,68.9,54.9,30.03,ENE,61,7.0,15.0,61,0.00,,---,0.00,VWS V14.01,2013-02-13 12:31:00,
2013-02-13 02:36:00,68.8,54.8,30.03,ENE,76,4.0,9.0,61,0.00,,---,0.00,VWS V14.01,2013-02-13 12:36:00,
2013-02-13 02:41:00,68.5,54.5,30.03,ENE,68,13.0,14.0,61,0.00,,---,0.00,VWS V14.01,2013-02-13 12:41:00,
2013-02-13 02:46:00,68.6,54.2,30.03,ENE,61,9.0,16.0,60,0.00,,---,0.00,VWS V14.01,2013-02-13 12:46:00,
2013-02-13 02:51:00,68.6,54.2,30.02,East,82,9.0,16.0,60,0.00,,---,0.00,VWS V14.01,2013-02-13 12:51:00,
2013-02-13 02:56:00,68.5,54.5,30.02,East,86,5.0,16.0,61,0.00,,---,0.00,VWS V14.01,2013-02-13 12:56:00,
2013-02-13 03:01:00,68.1,54.6,30.02,NE,55,2.0,16.0,62,0.00,,---,0.00,VWS V14.01,2013-02-13 13:01:00,
2013-02-13 03:07:00,67.8,54.3,30.02,NE,54,4.0,8.0,62,0.00,,---,0.00,VWS V14.01,2013-02-13 13:07:00,
2013-02-13 03:12:00,67.9,54.4,30.02,ENE,76,8.0,14.0,62,0.00,,---,0.00,VWS V14.01,2013-02-13 13:12:00,
2013-02-13 03:17:00,68.4,54.4,30.02,East,94,8.0,14.0,61,0.00,,---,0.00,VWS V14.01,2013-02-13 13:17:00,
2013-02-13 03:22:00,68.5,54.5,30.02,East,90,11.0,14.0,61,0.00,,---,0.00,VWS V14.01,2013-02-13 13:22:00,
2013-02-13 03:27:00,68.4,54.9,30.01,ENE,67,4.0,14.0,62,0.00,,---,0.00,VWS V14.01,2013-02-13 13:27:00,
2013-02-13 03:32:00,68.5,54.5,30.01,East,101,8.0,14.0,61,0.00,,---,0.00,VWS V14.01,2013-02-13 13:32:00,
2013-02-13 03:37:00,68.5,54.5,30.01,ENE,67,3.0,3.0,61,0.00,,---,0.00,VWS V14.01,2013-02-13 13:37:00,
2013-02-13 03:42:00,68.6,55.5,30.01,ENE,75,4.0,9.0,63,0.00,,---,0.00,VWS V14.01,2013-02-13 13:42:00,
2013-02-13 03:47:00,68.9,55.8,30.01,East,82,16.0,16.0,63,0.00,,---,0.00,VWS V14.01,2013-02-13 13:47:00,
2013-02-13 03:52:00,69.2,55.2,30.01,NE,44,5.0,16.0,61,0.00,,---,0.00,VWS V14.01,2013-02-13 13:52:00,
2013-02-13 03:57:00,69.1,54.7,30.01,NE,36,4.0,16.0,60,0.00,,---,0.00,VWS V14.01,2013-02-13 13:57:00,
2013-02-13 04:02:00,69.1,55.1,30.01,East,81,6.0,16.0,61,0.00,,---,0.00,VWS V14.01,2013-02-13 14:02:00,
2013-02-13 04:07:00,69.2,55.2,30.01,ESE,108,2.0,11.0,61,0.00,,---,0.00,VWS V14.01,2013-02-13 14:07:00,
2013-02-13 04:12:00,69.4,55.8,30.01,NE,39,6.0,13.0,62,0.00,,---,0.00,VWS V14.01,2013-02-13 14:12:00,
2013-02-13 04:17:00,69.5,55.5,30.01,East,100,3.0,22.0,61,0.00,,---,0.00,VWS V14.01,2013-02-13 14:17:00,
2013-02-13 04:22:00,69.4,55.8,30.01,NNW,344,8.0,22.0,62,0.00,,---,0.00,VWS V14.01,2013-02-13 14:22:00,
2013-02-13 04:27:00,69.8,55.8,30.01,NE,36,3.0,22.0,61,0.00,,---,0.00,VWS V14.01,2013-02-13 14:27:00,
2013-02-13 04:32:00,69.6,55.6,30.01,NE,45,11.0,22.0,61,0.00,,---,0.00,VWS V14.01,2013-02-13 14:32:00,
2013-02-13 04:37:00,69.4,55.4,30.00,East,94,6.0,10.0,61,0.00,,---,0.00,VWS V14.01,2013-02-13 14:37:00,
2013-02-13 04:42:00,69.3,55.3,30.00,ENE,61,13.0,16.0,61,0.00,,---,0.00,VWS V14.01,2013-02-13 14:42:00,
2013-02-13 04:47:00,69.2,55.2,30.00,NE,37,8.0,16.0,61,0.00,,---,0.00,VWS V14.01,2013-02-13 14:47:00,
2013-02-13 04:52:00,69.2,55.2,30.00,NE,47,5.0,16.0,61,0.00,,---,0.00,VWS V14.01,2013-02-13 14:52:00,
2013-02-13 04:57:00,69.1,55.1,30.00,ENE,78,7.0,16.0,61,0.00,,---,0.00,VWS V14.01,2013-02-13 14:57:00,
2013-02-13 05:02:00,69.2,55.2,30.01,NE,50,4.0,16.0,61,0.00,,---,0.00,VWS V14.01,2013-02-13 15:02:00,
2013-02-13 05:07:00,69.3,55.3,30.01,East,86,5.0,12.0,61,0.00,,---,0.00,VWS V14.01,2013-02-13 15:07:00,
2013-02-13 05:12:00,69.3,54.8,30.01,East,86,7.0,15.0,60,0.00,,---,0.00,VWS V14.01,2013-02-13 15:12:00,
2013-02-13 05:17:00,69.3,54.8,30.01,ENE,73,7.0,15.0,60,0.00,,---,0.00,VWS V14.01,2013-02-13 15:17:00,
2013-02-13 05:23:00,69.2,54.7,30.01,ENE,62,7.0,15.0,60,0.00,,---,0.00,VWS V14.01,2013-02-13 15:23:00,
2013-02-13 05:28:00,69.2,54.7,30.01,East,86,5.0,16.0,60,0.00,,---,0.00,VWS V14.01,2013-02-13 15:28:00,
2013-02-13 05:33:00,69.3,54.8,30.02,North,355,2.0,16.0,60,0.00,,---,0.00,VWS V14.01,2013-02-13 15:33:00,
2013-02-13 05:38:00,69.4,54.9,30.02,NE,50,10.0,13.0,60,0.00,,---,0.00,VWS V14.01,2013-02-13 15:38:00,
2013-02-13 05:43:00,69.4,54.5,30.02,NE,55,7.0,20.0,59,0.00,,---,0.00,VWS V14.01,2013-02-13 15:43:00,
2013-02-13 05:48:00,69.4,54.9,30.02,ENE,62,4.0,20.0,60,0.00,,---,0.00,VWS V14.01,2013-02-13 15:48:00,
2013-02-13 05:53:00,69.3,54.8,30.02,NE,56,7.0,20.0,60,0.00,,---,0.00,VWS V14.01,2013-02-13 15:53:00,
2013-02-13 05:58:00,69.2,54.7,30.02,ENE,74,5.0,20.0,60,0.00,,---,0.00,VWS V14.01,2013-02-13 15:58:00,
2013-02-13 06:03:00,69.2,54.7,30.02,East,83,5.0,20.0,60,0.00,,---,0.00,VWS V14.01,2013-02-13 16:03:00,
2013-02-13 06:08:00,69.2,55.2,30.02,NNE,30,13.0,14.0,61,0.00,,---,0.00,VWS V14.01,2013-02-13 16:08:00,
2013-02-13 06:13:00,69.1,54.7,30.02,ENE,61,4.0,17.0,60,0.00,,---,0.00,VWS V14.01,2013-02-13 16:13:00,
2013-02-13 06:18:00,69.0,54.5,30.02,East,81,8.0,17.0,60,0.00,,---,0.00,VWS V14.01,2013-02-13 16:18:00,
2013-02-13 06:23:00,68.9,54.5,30.02,NE,38,11.0,17.0,60,0.00,,---,0.00,VWS V14.01,2013-02-13 16:23:00,
2013-02-13 06:28:00,68.9,54.5,30.02,ENE,63,8.0,17.0,60,0.00,,---,0.00,VWS V14.01,2013-02-13 16:28:00,
2013-02-13 06:33:00,68.9,54.5,30.02,ENE,71,4.0,17.0,60,0.00,,---,0.00,VWS V14.01,2013-02-13 16:33:00,
2013-02-13 06:38:00,69.0,54.1,30.02,NNE,31,6.0,15.0,59,0.00,,---,0.00,VWS V14.01,2013-02-13 16:38:00,
2013-02-13 06:43:00,68.9,54.0,30.02,NE,38,12.0,25.0,59,0.00,,---,0.00,VWS V14.01,2013-02-13 16:43:00,
2013-02-13 06:48:00,69.1,53.7,30.02,East,88,14.0,25.0,58,0.00,,---,0.00,VWS V14.01,2013-02-13 16:48:00,
2013-02-13 06:53:00,69.3,53.9,30.02,NNE,23,5.0,25.0,58,0.00,,---,0.00,VWS V14.01,2013-02-13 16:53:00,
2013-02-13 06:59:00,69.3,53.9,30.03,ENE,59,8.0,25.0,58,0.00,,---,0.00,VWS V14.01,2013-02-13 16:59:00,
2013-02-13 07:04:00,69.3,53.9,30.03,NE,47,8.0,25.0,58,0.00,,---,0.00,VWS V14.01,2013-02-13 17:04:00,
2013-02-13 07:09:00,69.2,53.3,30.03,ESE,103,9.0,16.0,57,0.00,,---,0.00,VWS V14.01,2013-02-13 17:09:00,
2013-02-13 07:14:00,69.2,53.3,30.03,ENE,71,8.0,16.0,57,0.00,,---,0.00,VWS V14.01,2013-02-13 17:14:00,
2013-02-13 07:19:00,69.1,53.7,30.03,ENE,78,10.0,16.0,58,0.00,,---,0.00,VWS V14.01,2013-02-13 17:19:00,
2013-02-13 07:24:00,69.3,53.4,30.04,East,93,6.0,19.0,57,0.00,,---,0.00,VWS V14.01,2013-02-13 17:24:00,
2013-02-13 07:29:00,69.6,53.2,30.04,ENE,75,7.0,19.0,56,0.00,,---,0.00,VWS V14.01,2013-02-13 17:29:00,
2013-02-13 07:34:00,69.8,53.4,30.04,ENE,78,11.0,19.0,56,0.00,,---,0.00,VWS V14.01,2013-02-13 17:34:00,
2013-02-13 07:39:00,70.1,53.2,30.04,ENE,78,9.0,19.0,55,0.00,,---,0.00,VWS V14.01,2013-02-13 17:39:00,
2013-02-13 07:44:00,70.5,53.6,30.04,ENE,78,2.0,19.0,55,0.00,,---,0.00,VWS V14.01,2013-02-13 17:44:00,
2013-02-13 07:49:00,70.7,53.3,30.04,ENE,65,5.0,19.0,54,0.00,,---,0.00,VWS V14.01,2013-02-13 17:49:00,
2013-02-13 07:54:00,70.9,53.4,30.04,ENE,66,5.0,19.0,54,0.00,,---,0.00,VWS V14.01,2013-02-13 17:54:00,
2013-02-13 07:59:00,71.2,53.2,30.04,East,80,17.0,19.0,53,0.00,,---,0.00,VWS V14.01,2013-02-13 17:59:00,
2013-02-13 08:04:00,71.6,53.1,30.04,East,98,13.0,13.0,52,0.00,,---,0.00,VWS V14.01,2013-02-13 18:04:00,
2013-02-13 08:09:00,71.9,53.3,30.04,North,355,5.0,25.0,52,0.00,,---,0.00,VWS V14.01,2013-02-13 18:09:00,
2013-02-13 08:14:00,72.3,53.7,30.04,NE,56,6.0,25.0,52,0.00,,---,0.00,VWS V14.01,2013-02-13 18:14:00,
2013-02-13 08:19:00,72.6,54.0,30.04,ENE,63,12.0,25.0,52,0.00,,---,0.00,VWS V14.01,2013-02-13 18:19:00,
2013-02-13 08:24:00,72.8,53.6,30.04,North,5,10.0,25.0,51,0.00,,---,0.00,VWS V14.01,2013-02-13 18:24:00,
2013-02-13 08:29:00,73.0,54.4,30.04,NNE,25,4.0,25.0,52,0.00,,---,0.00,VWS V14.01,2013-02-13 18:29:00,
2013-02-13 08:34:00,73.6,54.4,30.04,NNE,33,6.0,9.0,51,0.00,,---,0.00,VWS V14.01,2013-02-13 18:34:00,
2013-02-13 08:40:00,73.8,54.0,30.04,NE,51,11.0,17.0,50,0.00,,---,0.00,VWS V14.01,2013-02-13 18:40:00,
2013-02-13 08:45:00,74.0,55.3,30.05,NNW,348,5.0,17.0,52,0.00,,---,0.00,VWS V14.01,2013-02-13 18:45:00,
2013-02-13 08:50:00,74.1,54.3,30.04,NE,48,13.0,20.0,50,0.00,,---,0.00,VWS V14.01,2013-02-13 18:50:00,
2013-02-13 08:55:00,74.5,55.2,30.05,NNW,346,6.0,20.0,51,0.00,,---,0.00,VWS V14.01,2013-02-13 18:55:00,
2013-02-13 09:00:00,74.5,56.8,30.05,ENE,60,7.0,20.0,54,0.00,,---,0.00,VWS V14.01,2013-02-13 19:00:00,
2013-02-13 09:05:00,74.9,54.5,30.05,East,87,8.0,11.0,49,0.00,,---,0.00,VWS V14.01,2013-02-13 19:05:00,
2013-02-13 09:10:00,75.4,56.0,30.05,NNE,13,4.0,13.0,51,0.00,,---,0.00,VWS V14.01,2013-02-13 19:10:00,
2013-02-13 09:15:00,75.5,56.1,30.05,East,88,5.0,15.0,51,0.00,,---,0.00,VWS V14.01,2013-02-13 19:15:00,
2013-02-13 09:20:00,75.7,54.1,30.05,ENE,69,13.0,21.0,47,0.00,,---,0.00,VWS V14.01,2013-02-13 19:20:00,
2013-02-13 09:25:00,75.5,53.9,30.05,ENE,76,14.0,26.0,47,0.00,,---,0.00,VWS V14.01,2013-02-13 19:25:00,
2013-02-13 09:30:00,75.9,54.2,30.05,ENE,70,12.0,26.0,47,0.00,,---,0.00,VWS V14.01,2013-02-13 19:30:00,
2013-02-13 09:35:00,76.3,54.6,30.05,East,84,10.0,15.0,47,0.00,,---,0.00,VWS V14.01,2013-02-13 19:35:00,
2013-02-13 09:40:00,76.5,54.8,30.05,ENE,63,3.0,15.0,47,0.00,,---,0.00,VWS V14.01,2013-02-13 19:40:00,
2013-02-13 09:45:00,76.9,54.6,30.05,ESE,106,9.0,21.0,46,0.00,,---,0.00,VWS V14.01,2013-02-13 19:45:00,
2013-02-13 09:50:00,76.9,55.2,30.05,NE,51,6.0,21.0,47,0.00,,---,0.00,VWS V14.01,2013-02-13 19:50:00,
2013-02-13 09:55:00,77.5,55.1,30.05,NE,51,6.0,21.0,46,0.00,,---,0.00,VWS V14.01,2013-02-13 19:55:00,
2013-02-13 10:00:00,77.9,54.9,30.05,NNE,22,6.0,21.0,45,0.00,,---,0.00,VWS V14.01,2013-02-13 20:00:00,
2013-02-13 10:05:00,78.2,56.3,30.05,NNW,342,9.0,13.0,47,0.00,,---,0.00,VWS V14.01,2013-02-13 20:05:00,
2013-02-13 10:10:00,78.4,57.7,30.05,NNE,31,2.0,13.0,49,0.00,,---,0.00,VWS V14.01,2013-02-13 20:10:00,
2013-02-13 10:15:00,78.6,56.7,30.05,East,84,6.0,13.0,47,0.00,,---,0.00,VWS V14.01,2013-02-13 20:15:00,
2013-02-13 10:20:00,79.2,58.4,30.05,NW,318,4.0,13.0,49,0.00,,---,0.00,VWS V14.01,2013-02-13 20:20:00,
2013-02-13 10:25:00,76.2,57.8,30.05,West,281,7.0,13.0,53,0.00,,---,0.00,VWS V14.01,2013-02-13 20:25:00,
2013-02-13 10:31:00,74.9,57.2,30.05,WNW,288,4.0,13.0,54,0.00,,---,0.00,VWS V14.01,2013-02-13 20:31:00,
2013-02-13 10:36:00,75.2,59.4,30.04,West,267,10.0,10.0,58,0.00,,---,0.00,VWS V14.01,2013-02-13 20:36:00,
2013-02-13 10:41:00,74.9,60.1,30.05,West,272,4.0,10.0,60,0.00,,---,0.00,VWS V14.01,2013-02-13 20:41:00,
2013-02-13 10:46:00,75.2,60.4,30.04,West,266,5.0,10.0,60,0.00,,---,0.00,VWS V14.01,2013-02-13 20:46:00,
2013-02-13 10:51:00,74.9,59.6,30.04,West,275,6.0,10.0,59,0.00,,---,0.00,VWS V14.01,2013-02-13 20:51:00,
2013-02-13 10:56:00,74.8,60.5,30.04,West,280,6.0,10.0,61,0.00,,---,0.00,VWS V14.01,2013-02-13 20:56:00,
2013-02-13 11:01:00,74.8,58.6,30.04,WNW,288,4.0,10.0,57,0.00,,---,0.00,VWS V14.01,2013-02-13 21:01:00,
2013-02-13 11:06:00,75.0,60.2,30.04,West,280,5.0,8.0,60,0.00,,---,0.00,VWS V14.01,2013-02-13 21:06:00,
2013-02-13 11:11:00,74.9,58.2,30.04,WNW,286,7.0,8.0,56,0.00,,---,0.00,VWS V14.01,2013-02-13 21:11:00,
2013-02-13 11:16:00,75.1,59.3,30.04,West,275,5.0,8.0,58,0.00,,---,0.00,VWS V14.01,2013-02-13 21:16:00,
2013-02-13 11:21:00,75.1,58.3,30.04,West,278,6.0,8.0,56,0.00,,---,0.00,VWS V14.01,2013-02-13 21:21:00,
2013-02-13 11:26:00,75.1,58.8,30.04,West,278,8.0,11.0,57,0.00,,---,0.00,VWS V14.01,2013-02-13 21:26:00,
2013-02-13 11:31:00,75.1,58.8,30.04,West,280,7.0,11.0,57,0.00,,---,0.00,VWS V14.01,2013-02-13 21:31:00,
2013-02-13 11:36:00,75.2,59.9,30.04,West,269,7.0,10.0,59,0.00,,---,0.00,VWS V14.01,2013-02-13 21:36:00,
2013-02-13 11:42:00,75.5,60.2,30.04,West,281,8.0,11.0,59,0.00,,---,0.00,VWS V14.01,2013-02-13 21:42:00,
2013-02-13 11:47:00,75.7,59.9,30.04,West,264,4.0,11.0,58,0.00,,---,0.00,VWS V14.01,2013-02-13 21:47:00,
2013-02-13 11:52:00,75.8,59.0,30.04,West,262,3.0,11.0,56,0.00,,---,0.00,VWS V14.01,2013-02-13 21:52:00,
2013-02-13 11:57:00,76.0,60.2,30.04,West,274,4.0,11.0,58,0.00,,---,0.00,VWS V14.01,2013-02-13 21:57:00,
2013-02-13 12:02:00,75.9,58.6,30.04,West,272,5.0,11.0,55,0.00,,---,0.00,VWS V14.01,2013-02-13 22:02:00,
2013-02-13 12:07:00,76.2,58.9,30.04,West,276,3.0,6.0,55,0.00,,---,0.00,VWS V14.01,2013-02-13 22:07:00,
2013-02-13 12:12:00,76.4,58.5,30.04,West,274,4.0,6.0,54,0.00,,---,0.00,VWS V14.01,2013-02-13 22:12:00,
2013-02-13 12:17:00,76.7,59.3,30.03,West,268,3.0,6.0,55,0.00,,---,0.00,VWS V14.01,2013-02-13 22:17:00,
2013-02-13 12:22:00,76.9,59.5,30.03,West,269,5.0,6.0,55,0.00,,---,0.00,VWS V14.01,2013-02-13 22:22:00,
2013-02-13 12:27:00,76.9,58.5,30.03,West,275,3.0,6.0,53,0.00,,---,0.00,VWS V14.01,2013-02-13 22:27:00,
2013-02-13 12:32:00,77.0,58.6,30.03,West,279,5.0,6.0,53,0.00,,---,0.00,VWS V14.01,2013-02-13 22:32:00,
2013-02-13 12:37:00,76.7,59.3,30.02,WNW,284,4.0,6.0,55,0.00,,---,0.00,VWS V14.01,2013-02-13 22:37:00,
2013-02-13 12:42:00,76.9,58.5,30.02,WNW,284,4.0,6.0,53,0.00,,---,0.00,VWS V14.01,2013-02-13 22:42:00,
2013-02-13 12:47:00,76.8,59.4,30.01,WNW,283,5.0,6.0,55,0.00,,---,0.00,VWS V14.01,2013-02-13 22:47:00,
2013-02-13 12:52:00,77.0,59.1,30.02,WNW,289,7.0,8.0,54,0.00,,---,0.00,VWS V14.01,2013-02-13 22:52:00,
2013-02-13 12:57:00,76.9,59.5,30.01,WNW,289,5.0,8.0,55,0.00,,---,0.00,VWS V14.01,2013-02-13 22:57:00,
2013-02-13 13:02:00,77.3,58.8,30.01,WNW,299,4.0,8.0,53,0.00,,---,0.00,VWS V14.01,2013-02-13 23:02:00,
2013-02-13 13:08:00,78.2,59.2,30.01,WNW,290,4.0,6.0,52,0.00,,---,0.00,VWS V14.01,2013-02-13 23:08:00,
2013-02-13 13:13:00,78.2,58.6,30.00,WNW,298,3.0,6.0,51,0.00,,---,0.00,VWS V14.01,2013-02-13 23:13:00,
2013-02-13 13:18:00,77.8,59.3,30.00,WNW,288,4.0,6.0,53,0.00,,---,0.00,VWS V14.01,2013-02-13 23:18:00,
2013-02-13 13:23:00,77.5,60.6,29.99,West,272,5.0,6.0,56,0.00,,---,0.00,VWS V14.01,2013-02-13 23:23:00,
2013-02-13 13:28:00,77.1,59.7,29.99,WNW,285,5.0,8.0,55,0.00,,---,0.00,VWS V14.01,2013-02-13 23:28:00,
2013-02-13 13:33:00,77.0,60.1,29.99,WNW,291,2.0,8.0,56,0.00,,---,0.00,VWS V14.01,2013-02-13 23:33:00,
2013-02-13 13:38:00,77.1,59.7,29.99,WNW,285,5.0,5.0,55,0.00,,---,0.00,VWS V14.01,2013-02-13 23:38:00,
2013-02-13 13:43:00,79.0,58.8,29.99,NNW,329,3.0,7.0,50,0.00,,---,0.00,VWS V14.01,2013-02-13 23:43:00,
2013-02-13 13:48:00,82.1,57.4,29.98,NE,45,15.0,15.0,43,0.00,,---,0.00,VWS V14.01,2013-02-13 23:48:00,
2013-02-13 13:53:00,83.3,57.2,29.98,NE,44,6.0,16.0,41,0.00,,---,0.00,VWS V14.01,2013-02-13 23:53:00,
2013-02-13 13:58:00,83.9,56.3,29.97,ENE,74,3.0,16.0,39,0.00,,---,0.00,VWS V14.01,2013-02-13 23:58:00,
2013-02-13 14:03:00,84.1,55.0,29.98,ENE,76,5.0,20.0,37,0.00,,---,0.00,VWS V14.01,2013-02-14 00:03:00,
2013-02-13 14:08:00,83.2,55.7,29.97,North,9,5.0,18.0,39,0.00,,---,0.00,VWS V14.01,2013-02-14 00:08:00,
2013-02-13 14:13:00,83.4,55.9,29.97,ENE,76,13.0,18.0,39,0.00,,---,0.00,VWS V14.01,2013-02-14 00:13:00,
2013-02-13 14:18:00,83.6,56.0,29.97,NE,52,11.0,18.0,39,0.00,,---,0.00,VWS V14.01,2013-02-14 00:18:00,
2013-02-13 14:23:00,83.2,55.7,29.96,NE,39,6.0,19.0,39,0.00,,---,0.00,VWS V14.01,2013-02-14 00:23:00,
2013-02-13 14:28:00,83.2,55.0,29.96,East,82,6.0,19.0,38,0.00,,---,0.00,VWS V14.01,2013-02-14 00:28:00,
2013-02-13 14:33:00,82.3,55.6,29.96,East,81,8.0,19.0,40,0.00,,---,0.00,VWS V14.01,2013-02-14 00:33:00,
2013-02-13 14:38:00,82.5,56.5,29.96,ENE,66,12.0,20.0,41,0.00,,---,0.00,VWS V14.01,2013-02-14 00:38:00,
2013-02-13 14:43:00,82.6,56.5,29.96,ENE,63,3.0,20.0,41,0.00,,---,0.00,VWS V14.01,2013-02-14 00:43:00,
2013-02-13 14:49:00,82.9,55.4,29.96,NE,46,8.0,21.0,39,0.00,,---,0.00,VWS V14.01,2013-02-14 00:49:00,
2013-02-13 14:54:00,82.3,55.6,29.95,ENE,64,11.0,21.0,40,0.00,,---,0.00,VWS V14.01,2013-02-14 00:54:00,
2013-02-13 14:59:00,82.3,56.3,29.95,ENE,71,12.0,21.0,41,0.00,,---,0.00,VWS V14.01,2013-02-14 00:59:00,
2013-02-13 15:04:00,81.6,55.6,29.95,ENE,75,7.0,22.0,41,0.00,,---,0.00,VWS V14.01,2013-02-14 01:04:00,
2013-02-13 15:09:00,82.0,56.0,29.95,NE,48,4.0,18.0,41,0.00,,---,0.00,VWS V14.01,2013-02-14 01:09:00,
2013-02-13 15:14:00,81.7,55.7,29.95,NE,55,6.0,21.0,41,0.00,,---,0.00,VWS V14.01,2013-02-14 01:14:00,
2013-02-13 15:19:00,81.5,56.2,29.95,ENE,71,12.0,21.0,42,0.00,,---,0.00,VWS V14.01,2013-02-14 01:19:00,
2013-02-13 15:24:00,81.4,56.1,29.95,NE,43,20.0,21.0,42,0.00,,---,0.00,VWS V14.01,2013-02-14 01:24:00,
2013-02-13 15:29:00,81.1,55.9,29.95,NNE,17,12.0,21.0,42,0.00,,---,0.00,VWS V14.01,2013-02-14 01:29:00,
2013-02-13 15:34:00,81.0,55.8,29.95,ESE,108,8.0,21.0,42,0.00,,---,0.00,VWS V14.01,2013-02-14 01:34:00,
2013-02-13 15:39:00,80.5,56.6,29.95,ENE,70,7.0,18.0,44,0.00,,---,0.00,VWS V14.01,2013-02-14 01:39:00,
2013-02-13 15:44:00,80.5,56.6,29.95,ENE,74,3.0,18.0,44,0.00,,---,0.00,VWS V14.01,2013-02-14 01:44:00,
2013-02-13 15:49:00,80.5,55.3,29.95,ENE,69,10.0,21.0,42,0.00,,---,0.00,VWS V14.01,2013-02-14 01:49:00,
2013-02-13 15:54:00,79.6,55.8,29.95,ESE,111,10.0,22.0,44,0.00,,---,0.00,VWS V14.01,2013-02-14 01:54:00,
2013-02-13 15:59:00,79.0,55.2,29.95,East,91,6.0,22.0,44,0.00,,---,0.00,VWS V14.01,2013-02-14 01:59:00,
2013-02-13 16:04:00,79.1,55.3,29.95,East,84,11.0,14.0,44,0.00,,---,0.00,VWS V14.01,2013-02-14 02:04:00,
2013-02-13 16:09:00,78.7,55.0,29.95,ENE,61,14.0,17.0,44,0.00,,---,0.00,VWS V14.01,2013-02-14 02:09:00,
2013-02-13 16:14:00,78.4,55.3,29.95,ENE,59,13.0,19.0,45,0.00,,---,0.00,VWS V14.01,2013-02-14 02:14:00,
2013-02-13 16:19:00,77.9,54.9,29.95,NE,56,6.0,19.0,45,0.00,,---,0.00,VWS V14.01,2013-02-14 02:19:00,
2013-02-13 16:24:00,77.6,54.6,29.96,ENE,62,7.0,19.0,45,0.00,,---,0.00,VWS V14.01,2013-02-14 02:24:00,
2013-02-13 16:29:00,77.2,54.8,29.96,East,86,13.0,24.0,46,0.00,,---,0.00,VWS V14.01,2013-02-14 02:29:00,
2013-02-13 16:34:00,76.9,54.6,29.96,ENE,76,10.0,11.0,46,0.00,,---,0.00,VWS V14.01,2013-02-14 02:34:00,
2013-02-13 16:39:00,76.5,54.2,29.96,East,94,7.0,18.0,46,0.00,,---,0.00,VWS V14.01,2013-02-14 02:39:00,
2013-02-13 16:44:00,76.4,54.1,29.96,ENE,65,13.0,19.0,46,0.00,,---,0.00,VWS V14.01,2013-02-14 02:44:00,
2013-02-13 16:49:00,76.3,54.0,29.96,East,82,5.0,20.0,46,0.00,,---,0.00,VWS V14.01,2013-02-14 02:49:00,
2013-02-13 16:54:00,76.2,53.9,29.97,East,82,18.0,20.0,46,0.00,,---,0.00,VWS V14.01,2013-02-14 02:54:00,
2013-02-13 16:59:00,76.1,53.8,29.97,ENE,78,9.0,20.0,46,0.00,,---,0.00,VWS V14.01,2013-02-14 02:59:00,
2013-02-13 17:04:00,75.9,53.7,29.97,ENE,57,5.0,11.0,46,0.00,,---,0.00,VWS V14.01,2013-02-14 03:04:00,
2013-02-13 17:10:00,75.7,53.5,29.97,ENE,74,9.0,16.0,46,0.00,,---,0.00,VWS V14.01,2013-02-14 03:10:00,
2013-02-13 17:15:00,75.4,53.8,29.98,ENE,63,10.0,16.0,47,0.00,,---,0.00,VWS V14.01,2013-02-14 03:15:00,
2013-02-13 17:20:00,75.3,54.3,29.97,ESE,102,5.0,18.0,48,0.00,,---,0.00,VWS V14.01,2013-02-14 03:20:00,
2013-02-13 17:25:00,75.2,54.2,29.97,ESE,108,3.0,18.0,48,0.00,,---,0.00,VWS V14.01,2013-02-14 03:25:00,
2013-02-13 17:30:00,75.0,54.6,29.97,SE,134,6.0,18.0,49,0.00,,---,0.00,VWS V14.01,2013-02-14 03:30:00,
2013-02-13 17:35:00,74.9,54.5,29.97,East,89,10.0,14.0,49,0.00,,---,0.00,VWS V14.01,2013-02-14 03:35:00,
2013-02-13 17:40:00,74.7,54.3,29.97,ENE,59,14.0,17.0,49,0.00,,---,0.00,VWS V14.01,2013-02-14 03:40:00,
2013-02-13 17:45:00,74.4,54.6,29.97,NNE,28,5.0,17.0,50,0.00,,---,0.00,VWS V14.01,2013-02-14 03:45:00,
2013-02-13 17:50:00,73.7,53.9,29.97,East,92,3.0,17.0,50,0.00,,---,0.00,VWS V14.01,2013-02-14 03:50:00,
2013-02-13 17:55:00,73.3,54.1,29.97,East,80,8.0,17.0,51,0.00,,---,0.00,VWS V14.01,2013-02-14 03:55:00,
2013-02-13 17:56:00,71.7,55.7,30.00,ENE,71,3.0,15.0,57,0.00,,---,0.00,VWS V14.01,2013-02-14 03:56:00,
2013-02-13 17:57:00,71.7,55.7,30.00,ENE,69,8.0,15.0,57,0.00,,---,0.00,VWS V14.01,2013-02-14 03:57:00,
2013-02-13 17:58:00,71.8,55.8,30.00,ENE,75,7.0,15.0,57,0.00,,---,0.00,VWS V14.01,2013-02-14 03:58:00,
2013-02-13 17:59:00,71.8,55.8,30.00,ESE,105,4.0,15.0,57,0.00,,---,0.00,VWS V14.01,2013-02-14 03:59:00,
2013-02-13 18:00:00,73.1,54.5,29.97,ENE,67,13.0,17.0,52,0.00,,---,0.00,VWS V14.01,2013-02-14 04:00:00,
2013-02-13 18:01:00,71.9,55.9,30.00,East,87,6.0,8.0,57,0.00,,---,0.00,VWS V14.01,2013-02-14 04:01:00,
2013-02-13 18:02:00,71.9,55.9,30.00,ENE,64,3.0,10.0,57,0.00,,---,0.00,VWS V14.01,2013-02-14 04:02:00,
2013-02-13 18:03:00,71.9,55.9,30.00,ENE,63,5.0,10.0,57,0.00,,---,0.00,VWS V14.01,2013-02-14 04:03:00,
2013-02-13 18:04:00,71.9,55.9,30.00,NE,35,5.0,10.0,57,0.00,,---,0.00,VWS V14.01,2013-02-14 04:04:00,
2013-02-13 18:05:00,72.9,54.8,29.97,East,82,5.0,14.0,53,0.00,,---,0.00,VWS V14.01,2013-02-14 04:05:00,
2013-02-13 18:06:00,71.9,55.9,30.00,ENE,66,1.0,10.0,57,0.00,,---,0.00,VWS V14.01,2013-02-14 04:06:00,
2013-02-13 18:07:00,71.9,55.9,30.00,NE,45,3.0,10.0,57,0.00,,---,0.00,VWS V14.01,2013-02-14 04:07:00,
2013-02-13 18:08:00,71.9,55.9,30.00,ENE,60,8.0,15.0,57,0.00,,---,0.00,VWS V14.01,2013-02-14 04:08:00,
2013-02-13 18:09:00,71.9,55.9,30.00,ENE,67,5.0,15.0,57,0.00,,---,0.00,VWS V14.01,2013-02-14 04:09:00,
2013-02-13 18:10:00,72.8,54.7,29.98,East,90,8.0,16.0,53,0.00,,---,0.00,VWS V14.01,2013-02-14 04:10:00,
2013-02-13 18:11:00,72.0,55.5,30.00,NE,51,3.0,15.0,56,0.00,,---,0.00,VWS V14.01,2013-02-14 04:11:00,
2013-02-13 18:12:00,71.9,55.4,30.00,ENE,63,5.0,15.0,56,0.00,,---,0.00,VWS V14.01,2013-02-14 04:12:00,
2013-02-13 18:13:00,71.9,55.4,30.00,ENE,57,5.0,15.0,56,0.00,,---,0.00,VWS V14.01,2013-02-14 04:13:00,
2013-02-13 18:14:00,71.9,55.4,30.00,NE,44,5.0,15.0,56,0.00,,---,0.00,VWS V14.01,2013-02-14 04:14:00,
2013-02-13 18:15:00,72.6,55.0,29.98,ENE,59,8.0,16.0,54,0.00,,---,0.00,VWS V14.01,2013-02-14 04:15:00,
2013-02-13 18:16:00,71.9,55.4,30.00,ENE,78,5.0,15.0,56,0.00,,---,0.00,VWS V14.01,2013-02-14 04:16:00,
2013-02-13 18:17:00,71.8,55.3,30.00,East,89,7.0,15.0,56,0.00,,---,0.00,VWS V14.01,2013-02-14 04:17:00,
2013-02-13 18:18:00,71.8,55.8,30.00,ESE,109,7.0,15.0,57,0.00,,---,0.00,VWS V14.01,2013-02-14 04:18:00,
2013-02-13 18:19:00,71.7,55.7,30.00,ENE,69,9.0,15.0,57,0.00,,---,0.00,VWS V14.01,2013-02-14 04:19:00,
2013-02-13 18:20:00,72.3,55.2,29.98,ENE,71,13.0,16.0,55,0.00,,---,0.00,VWS V14.01,2013-02-14 04:20:00,
2013-02-13 18:21:00,71.6,55.1,30.00,ENE,65,4.0,15.0,56,0.00,,---,0.00,VWS V14.01,2013-02-14 04:21:00,
2013-02-13 18:22:00,71.6,55.1,30.00,ENE,74,4.0,15.0,56,0.00,,---,0.00,VWS V14.01,2013-02-14 04:22:00,
2013-02-13 18:23:00,71.6,55.1,30.00,East,97,9.0,15.0,56,0.00,,---,0.00,VWS V14.01,2013-02-14 04:23:00,
2013-02-13 18:24:00,71.5,55.0,30.00,NE,56,3.0,15.0,56,0.00,,---,0.00,VWS V14.01,2013-02-14 04:24:00,
2013-02-13 18:25:00,71.5,55.0,30.00,NE,44,9.0,15.0,56,0.00,,---,0.00,VWS V14.01,2013-02-14 04:25:00,
2013-02-13 18:26:00,72.0,55.5,29.98,East,81,2.0,16.0,56,0.00,,---,0.00,VWS V14.01,2013-02-14 04:26:00,
2013-02-13 18:27:00,71.4,55.4,30.01,NE,49,4.0,15.0,57,0.00,,---,0.00,VWS V14.01,2013-02-14 04:27:00,
2013-02-13 18:28:00,71.4,55.4,30.01,NE,38,8.0,15.0,57,0.00,,---,0.00,VWS V14.01,2013-02-14 04:28:00,
2013-02-13 18:29:00,71.3,55.3,30.00,NE,40,12.0,15.0,57,0.00,,---,0.00,VWS V14.01,2013-02-14 04:29:00,
2013-02-13 18:30:00,71.3,55.3,30.00,NNE,26,10.0,15.0,57,0.00,,---,0.00,VWS V14.01,2013-02-14 04:30:00,
2013-02-13 18:31:00,71.3,55.3,30.01,ENE,62,7.0,10.0,57,0.00,,---,0.00,VWS V14.01,2013-02-14 04:31:00,
2013-02-13 18:32:00,71.7,55.7,29.98,ENE,76,9.0,16.0,57,0.00,,---,0.00,VWS V14.01,2013-02-14 04:32:00,
2013-02-13 18:33:00,71.3,54.8,30.01,ENE,76,3.0,16.0,56,0.00,,---,0.00,VWS V14.01,2013-02-14 04:33:00,
2013-02-13 18:34:00,71.3,55.3,30.01,ESE,117,8.0,16.0,57,0.00,,---,0.00,VWS V14.01,2013-02-14 04:34:00,
2013-02-13 18:35:00,71.3,55.3,30.01,NE,42,7.0,16.0,57,0.00,,---,0.00,VWS V14.01,2013-02-14 04:35:00,
2013-02-13 18:36:00,71.3,55.3,30.01,East,87,8.0,16.0,57,0.00,,---,0.00,VWS V14.01,2013-02-14 04:36:00,
2013-02-13 18:37:00,71.6,55.6,29.99,East,79,6.0,13.0,57,0.00,,---,0.00,VWS V14.01,2013-02-14 04:37:00,
2013-02-13 18:38:00,71.3,55.3,30.01,NE,42,8.0,16.0,57,0.00,,---,0.00,VWS V14.01,2013-02-14 04:38:00,
2013-02-13 18:40:00,71.2,55.2,30.01,NE,45,7.0,16.0,57,0.00,,---,0.00,VWS V14.01,2013-02-14 04:40:00,
2013-02-13 18:41:00,71.2,55.2,30.01,East,83,11.0,16.0,57,0.00,,---,0.00,VWS V14.01,2013-02-14 04:41:00,
2013-02-13 18:42:00,71.5,56.0,29.99,ENE,57,3.0,13.0,58,0.00,,---,0.00,VWS V14.01,2013-02-14 04:42:00,
2013-02-13 18:43:00,71.1,55.6,30.01,East,81,8.0,16.0,58,0.00,,---,0.00,VWS V14.01,2013-02-14 04:43:00,
2013-02-13 18:44:00,71.1,55.6,30.01,ENE,70,11.0,16.0,58,0.00,,---,0.00,VWS V14.01,2013-02-14 04:44:00,
2013-02-13 18:45:00,71.1,55.6,30.01,NNE,28,6.0,16.0,58,0.00,,---,0.00,VWS V14.01,2013-02-14 04:45:00,
2013-02-13 18:46:00,71.1,55.6,30.01,ENE,57,11.0,16.0,58,0.00,,---,0.00,VWS V14.01,2013-02-14 04:46:00,
2013-02-13 18:47:00,71.5,55.5,30.00,ENE,75,3.0,13.0,57,0.00,,---,0.00,VWS V14.01,2013-02-14 04:47:00,
2013-02-13 18:48:00,71.1,55.1,30.01,East,81,9.0,16.0,57,0.00,,---,0.00,VWS V14.01,2013-02-14 04:48:00,
2013-02-13 18:49:00,71.1,55.1,30.01,East,80,8.0,16.0,57,0.00,,---,0.00,VWS V14.01,2013-02-14 04:49:00,
2013-02-13 18:50:00,71.1,55.1,30.01,NE,53,8.0,16.0,57,0.00,,---,0.00,VWS V14.01,2013-02-14 04:50:00,
2013-02-13 18:51:00,71.1,55.1,30.02,ENE,76,4.0,16.0,57,0.00,,---,0.00,VWS V14.01,2013-02-14 04:51:00,
2013-02-13 18:52:00,71.5,56.0,30.00,NE,55,4.0,13.0,58,0.00,,---,0.00,VWS V14.01,2013-02-14 04:52:00,
2013-02-13 18:53:00,71.2,55.2,30.01,East,88,6.0,16.0,57,0.00,,---,0.00,VWS V14.01,2013-02-14 04:53:00,
2013-02-13 18:54:00,71.1,55.1,30.01,East,80,7.0,16.0,57,0.00,,---,0.00,VWS V14.01,2013-02-14 04:54:00,
2013-02-13 18:55:00,71.1,55.1,30.01,East,90,6.0,16.0,57,0.00,,---,0.00,VWS V14.01,2013-02-14 04:55:00,
2013-02-13 18:57:00,71.7,56.2,30.00,East,88,7.0,15.0,58,0.00,,---,0.00,VWS V14.01,2013-02-14 04:57:00,
2013-02-13 18:58:00,71.1,54.6,30.01,East,84,9.0,17.0,56,0.00,,---,0.00,VWS V14.01,2013-02-14 04:58:00,
2013-02-13 19:00:00,71.1,54.6,30.01,ENE,70,5.0,7.0,56,0.00,,---,0.00,VWS V14.01,2013-02-14 05:00:00,
2013-02-13 19:02:00,71.2,54.7,30.02,ENE,78,2.0,16.0,56,0.00,,---,0.00,VWS V14.01,2013-02-14 05:02:00,
2013-02-13 19:03:00,71.2,54.7,30.02,East,80,6.0,16.0,56,0.00,,---,0.00,VWS V14.01,2013-02-14 05:03:00,
2013-02-13 19:04:00,71.2,54.7,30.02,ENE,72,1.0,16.0,56,0.00,,---,0.00,VWS V14.01,2013-02-14 05:04:00,
2013-02-13 19:05:00,71.2,54.7,30.01,ESE,115,0.0,16.0,56,0.00,,---,0.00,VWS V14.01,2013-02-14 05:05:00,
2013-02-13 19:06:00,71.2,54.7,30.01,East,90,2.0,16.0,56,0.00,,---,0.00,VWS V14.01,2013-02-14 05:06:00,
2013-02-13 19:07:00,71.2,54.7,30.02,NE,48,2.0,16.0,56,0.00,,---,0.00,VWS V14.01,2013-02-14 05:07:00,
2013-02-13 19:09:00,71.1,54.6,30.01,NE,47,5.0,16.0,56,0.00,,---,0.00,VWS V14.01,2013-02-14 05:09:00,
2013-02-13 19:12:00,71.1,54.6,30.01,East,80,7.0,16.0,56,0.00,,---,0.00,VWS V14.01,2013-02-14 05:12:00,
2013-02-13 19:14:00,71.1,54.6,30.01,ESE,113,11.0,16.0,56,0.00,,---,0.00,VWS V14.01,2013-02-14 05:14:00,
2013-02-13 19:15:00,71.1,54.6,30.01,ENE,69,9.0,16.0,56,0.00,,---,0.00,VWS V14.01,2013-02-14 05:15:00,
2013-02-13 19:16:00,71.1,54.6,30.01,East,83,7.0,16.0,56,0.00,,---,0.00,VWS V14.01,2013-02-14 05:16:00,
2013-02-13 19:17:00,71.1,54.6,30.01,ENE,75,2.0,16.0,56,0.00,,---,0.00,VWS V14.01,2013-02-14 05:17:00,
2013-02-13 19:18:00,71.2,54.7,30.02,NE,40,10.0,16.0,56,0.00,,---,0.00,VWS V14.01,2013-02-14 05:18:00,
2013-02-13 19:19:00,71.2,54.7,30.02,NE,55,9.0,16.0,56,0.00,,---,0.00,VWS V14.01,2013-02-14 05:19:00,
2013-02-13 19:20:00,71.3,54.8,30.02,ENE,61,4.0,16.0,56,0.00,,---,0.00,VWS V14.01,2013-02-14 05:20:00,
2013-02-13 19:22:00,71.3,54.8,30.02,ENE,69,3.0,16.0,56,0.00,,---,0.00,VWS V14.01,2013-02-14 05:22:00,
2013-02-13 20:00:00,71.1,55.1,30.01,East,94,6.0,16.0,57,0.00,,---,0.00,VWS V14.01,2013-02-14 06:00:00,
2013-02-13 20:05:00,71.1,54.6,30.01,ENE,77,16.0,16.0,56,0.00,,---,0.00,VWS V14.01,2013-02-14 06:05:00,
2013-02-13 20:12:00,71.2,54.7,30.01,ENE,69,3.0,16.0,56,0.00,,---,0.00,VWS V14.01,2013-02-14 06:12:00,
2013-02-13 20:17:00,71.1,54.6,30.01,East,92,5.0,16.0,56,0.00,,---,0.00,VWS V14.01,2013-02-14 06:17:00,
2013-02-13 20:25:00,71.3,54.8,30.02,NE,36,7.0,16.0,56,0.00,,---,0.00,VWS V14.01,2013-02-14 06:25:00,
2013-02-13 20:30:00,71.4,55.4,30.02,ENE,67,10.0,16.0,57,0.00,,---,0.00,VWS V14.01,2013-02-14 06:30:00,
2013-02-13 20:35:00,71.4,55.9,30.02,ENE,76,4.0,10.0,58,0.00,,---,0.00,VWS V14.01,2013-02-14 06:35:00,
2013-02-13 20:40:00,71.3,55.8,30.02,NE,51,11.0,14.0,58,0.00,,---,0.00,VWS V14.01,2013-02-14 06:40:00,
2013-02-13 20:45:00,71.2,55.7,30.03,NE,39,3.0,14.0,58,0.00,,---,0.00,VWS V14.01,2013-02-14 06:45:00,
2013-02-13 20:50:00,71.1,55.1,30.03,NNE,24,4.0,14.0,57,0.00,,---,0.00,VWS V14.01,2013-02-14 06:50:00,
2013-02-13 20:55:00,70.9,54.9,30.02,East,95,6.0,15.0,57,0.00,,---,0.00,VWS V14.01,2013-02-14 06:55:00,
2013-02-13 21:00:00,71.2,55.7,30.03,NNE,30,2.0,15.0,58,0.00,,---,0.00,VWS V14.01,2013-02-14 07:00:00,
2013-02-13 21:05:00,71.1,55.1,30.03,ENE,78,10.0,12.0,57,0.00,,---,0.00,VWS V14.01,2013-02-14 07:05:00,
2013-02-13 21:10:00,71.1,54.6,30.03,East,84,2.0,18.0,56,0.00,,---,0.00,VWS V14.01,2013-02-14 07:10:00,
2013-02-13 21:15:00,71.3,54.8,30.03,NE,34,3.0,18.0,56,0.00,,---,0.00,VWS V14.01,2013-02-14 07:15:00,
2013-02-13 21:20:00,71.4,54.9,30.04,NE,34,3.0,18.0,56,0.00,,---,0.00,VWS V14.01,2013-02-14 07:20:00,
2013-02-13 21:26:00,71.1,54.6,30.04,ENE,74,2.0,18.0,56,0.00,,---,0.00,VWS V14.01,2013-02-14 07:26:00,
2013-02-13 21:31:00,70.7,54.7,30.04,NE,38,2.0,18.0,57,0.00,,---,0.00,VWS V14.01,2013-02-14 07:31:00,
2013-02-13 21:36:00,70.4,54.5,30.04,NE,34,1.0,6.0,57,0.00,,---,0.00,VWS V14.01,2013-02-14 07:36:00,
2013-02-13 21:41:00,70.0,55.0,30.04,NE,36,0.0,6.0,59,0.00,,---,0.00,VWS V14.01,2013-02-14 07:41:00,
2013-02-13 21:46:00,69.7,54.8,30.04,ESE,102,1.0,6.0,59,0.00,,---,0.00,VWS V14.01,2013-02-14 07:46:00,
2013-02-13 21:51:00,69.7,54.8,30.04,East,82,1.0,9.0,59,0.00,,---,0.00,VWS V14.01,2013-02-14 07:51:00,
2013-02-13 21:56:00,69.5,55.0,30.04,East,81,0.0,9.0,60,0.00,,---,0.00,VWS V14.01,2013-02-14 07:56:00,
2013-02-13 22:01:00,69.4,54.9,30.04,East,81,0.0,9.0,60,0.00,,---,0.00,VWS V14.01,2013-02-14 08:01:00,
2013-02-13 22:06:00,69.0,54.5,30.04,East,81,1.0,1.0,60,0.00,,---,0.00,VWS V14.01,2013-02-14 08:06:00,
2013-02-13 22:11:00,68.7,54.7,30.04,SSE,152,4.0,4.0,61,0.00,,---,0.00,VWS V14.01,2013-02-14 08:11:00,
2013-02-13 22:16:00,68.3,54.3,30.04,SSE,156,0.0,5.0,61,0.00,,---,0.00,VWS V14.01,2013-02-14 08:16:00,
2013-02-13 22:21:00,68.6,54.6,30.04,East,92,7.0,10.0,61,0.00,,---,0.00,VWS V14.01,2013-02-14 08:21:00,
2013-02-13 22:26:00,68.8,55.3,30.04,ENE,70,8.0,11.0,62,0.00,,---,0.00,VWS V14.01,2013-02-14 08:26:00,
2013-02-13 22:31:00,68.9,55.4,30.04,ENE,75,4.0,12.0,62,0.00,,---,0.00,VWS V14.01,2013-02-14 08:31:00,
2013-02-13 22:36:00,69.0,55.5,30.04,NE,48,5.0,10.0,62,0.00,,---,0.00,VWS V14.01,2013-02-14 08:36:00,
2013-02-13 22:41:00,68.9,55.8,30.04,NE,37,2.0,15.0,63,0.00,,---,0.00,VWS V14.01,2013-02-14 08:41:00,
2013-02-13 22:46:00,68.8,56.1,30.04,ENE,69,2.0,15.0,64,0.00,,---,0.00,VWS V14.01,2013-02-14 08:46:00,
2013-02-13 22:51:00,68.7,56.5,30.04,ENE,78,8.0,15.0,65,0.00,,---,0.00,VWS V14.01,2013-02-14 08:51:00,
2013-02-13 22:56:00,68.8,56.6,30.04,ENE,65,14.0,15.0,65,0.00,,---,0.00,VWS V14.01,2013-02-14 08:56:00,
2013-02-13 23:02:00,68.9,56.2,30.03,East,80,6.0,15.0,64,0.00,,---,0.00,VWS V14.01,2013-02-14 09:02:00,
2013-02-13 23:07:00,69.1,56.4,30.04,ENE,59,9.0,13.0,64,0.00,,---,0.00,VWS V14.01,2013-02-14 09:07:00,
2013-02-13 23:12:00,69.2,56.5,30.04,East,90,13.0,19.0,64,0.00,,---,0.00,VWS V14.01,2013-02-14 09:12:00,
2013-02-13 23:17:00,69.2,56.5,30.04,ENE,76,9.0,22.0,64,0.00,,---,0.00,VWS V14.01,2013-02-14 09:17:00,
2013-02-13 23:22:00,69.0,56.3,30.04,ESE,104,9.0,22.0,64,0.00,,---,0.00,VWS V14.01,2013-02-14 09:22:00,
2013-02-13 23:27:00,68.9,56.7,30.04,ENE,68,12.0,22.0,65,0.00,,---,0.00,VWS V14.01,2013-02-14 09:27:00,
2013-02-13 23:32:00,69.0,56.8,30.04,ENE,64,12.0,22.0,65,0.00,,---,0.00,VWS V14.01,2013-02-14 09:32:00,
2013-02-13 23:37:00,69.0,57.2,30.03,ENE,68,10.0,14.0,66,0.00,,---,0.00,VWS V14.01,2013-02-14 09:37:00,
2013-02-13 23:42:00,68.9,57.1,30.03,NE,38,5.0,19.0,66,0.00,,---,0.00,VWS V14.01,2013-02-14 09:42:00,
2013-02-13 23:47:00,68.8,57.0,30.03,ENE,68,8.0,19.0,66,0.00,,---,0.00,VWS V14.01,2013-02-14 09:47:00,
2013-02-13 23:52:00,68.8,57.4,30.02,ENE,78,10.0,19.0,67,0.00,,---,0.00,VWS V14.01,2013-02-14 09:52:00,
2013-02-13 23:57:00,68.9,57.5,30.02,East,79,14.0,22.0,67,0.00,,---,0.00,VWS V14.01,2013-02-14 09:57:00,